Date String (YYYY-MM-DD hh:mm:ss) UTC,Instrument flags,Ambient pressure (hPa),Sample flow (lpm),Bypass flow (lpm),Sample temperature (°C),Ambient temperature (°C),ASC tube jacket temperature (°C),LED temperature (°C),Box temperature (°C),Sample RH (%),Span deviation,Mass concentration (μg/m³),Mass concentration (μg/m³),Mass concentration (μg/m³)
DateTimeUTC,F1_M11,P_M11,Q1_M11,Q2_M11,T1_M11,T2_M11,T3_M11,T4_M11,T5_M11,U1_M11,ZSPAN_M11,X0_M11,X2_M11,X1_M11
2021-11-20 12:00:00,,0825.6,5.00,0.00,26.4,25.5,00.0,35.3,28.1,10.3,0002.1,0011.70,0005.35,0004.38
2021-11-20 12:01:00,,0825.7,4.99,0.00,26.4,25.5,00.0,35.3,28.2,10.3,0001.8,0012.14,0005.37,0004.39
2021-11-20 12:02:00,,0825.7,5.00,0.00,26.4,25.5,00.0,35.4,28.1,10.3,0001.3,0012.86,0005.41,0004.39
2021-11-20 12:03:00,,0825.8,5.01,0.00,26.4,25.5,00.0,35.4,28.1,10.2,0001.5,0013.46,0005.43,0004.40
2021-11-20 12:04:00,,0825.9,5.01,0.00,26.4,25.5,00.0,35.4,28.2,10.2,0002.4,0014.13,0005.44,0004.41
2021-11-20 12:05:00,,0826.0,5.01,0.00,26.4,25.5,00.0,35.4,28.2,10.3,0002.6,0014.31,0005.49,0004.43
2021-11-20 12:06:00,,0826.3,5.00,0.00,26.4,25.4,00.0,35.4,28.2,10.3,0002.3,0014.19,0005.50,0004.45
2021-11-20 12:07:00,,0825.9,4.98,0.00,26.4,25.4,00.0,35.4,28.2,10.3,0001.6,0013.29,0005.47,0004.46
2021-11-20 12:08:00,,0826.0,5.01,0.00,26.4,25.5,00.0,35.4,28.2,10.3,0001.3,0014.38,0005.53,0004.48
2021-11-20 12:09:00,,0825.8,5.00,0.00,26.4,25.5,00.0,35.4,28.2,10.3,0001.0,0016.13,0005.58,0004.49
2021-11-20 12:10:00,,0825.8,4.99,0.00,26.4,25.5,00.0,35.4,28.2,10.3,0000.9,0016.24,0005.57,0004.48
2021-11-20 12:11:00,,0825.8,5.01,0.00,26.4,25.5,00.0,35.4,28.2,10.3,0000.1,0016.43,0005.59,0004.48
2021-11-20 12:12:00,,0825.9,5.00,0.00,26.4,25.4,00.0,35.3,28.1,10.3,0000.0,0016.37,0005.55,0004.47
2021-11-20 12:13:00,,0825.9,5.00,0.00,26.4,25.4,00.0,35.3,28.2,10.2,0000.0,0016.04,0005.59,0004.47
2021-11-20 12:14:00,,0825.8,4.99,0.00,26.4,25.4,00.0,35.3,28.2,10.1,0000.0,0016.41,0005.67,0004.51
2021-11-20 12:15:00,,0825.8,5.02,0.00,26.4,25.4,00.0,35.3,28.2,10.1,0000.0,0016.52,0005.76,0004.52
2021-11-20 12:16:00,,0825.8,5.01,0.00,26.4,25.4,00.0,35.3,28.1,10.1,0000.0,0016.09,0005.87,0004.54
2021-11-20 12:17:00,,0825.9,4.98,0.00,26.4,25.4,00.0,35.3,28.2,10.1,0000.0,0016.94,0005.92,0004.57
2021-11-20 12:18:00,,0825.9,5.00,0.00,26.4,25.4,00.0,35.3,28.1,10.1,0000.0,0017.60,0005.98,0004.59
2021-11-20 12:19:00,,0826.0,5.00,0.00,26.4,25.4,00.0,35.3,28.2,10.1,0000.0,0017.59,0006.04,0004.61
2021-11-20 12:20:00,,0826.0,5.00,0.00,26.3,25.4,00.0,35.3,28.2,10.1,0000.0,0016.86,0006.07,0004.63
2021-11-20 12:21:00,,0826.0,4.99,0.00,26.3,25.4,00.0,35.3,28.1,10.1,0000.0,0016.96,0006.15,0004.67
2021-11-20 12:22:00,,0826.0,5.00,0.00,26.4,25.4,00.0,35.3,28.2,10.1,0000.0,0017.59,0006.19,0004.68
2021-11-20 12:23:00,,0826.1,5.00,0.00,26.3,25.4,00.0,35.3,28.1,10.2,0000.0,0017.51,0006.22,0004.72
2021-11-20 12:24:00,,0826.2,5.01,0.00,26.4,25.4,00.0,35.3,28.2,10.1,0000.0,0017.45,0006.23,0004.75
2021-11-20 12:25:00,,0826.2,4.99,0.00,26.3,25.4,00.0,35.3,28.2,10.1,0000.0,0016.46,0006.14,0004.74
2021-11-20 12:26:00,,0826.2,4.98,0.00,26.3,25.4,00.0,35.3,28.1,10.1,0000.0,0016.33,0006.09,0004.73
2021-11-20 12:27:00,,0826.2,5.01,0.00,26.3,25.4,00.0,35.3,28.1,10.2,0000.0,0016.47,0006.03,0004.74
2021-11-20 12:28:00,,0826.2,4.99,0.00,26.3,25.4,00.0,35.3,28.1,10.2,0000.0,0016.55,0006.05,0004.72
2021-11-20 12:29:00,,0826.2,5.01,0.00,26.3,25.4,00.0,35.3,28.1,10.2,0000.0,0016.83,0006.07,0004.73
2021-11-20 12:30:00,,0826.2,4.99,0.00,26.3,25.4,00.0,35.3,28.1,10.2,0000.0,0016.17,0006.03,0004.73
2021-11-20 12:31:00,,0826.2,5.01,0.00,26.3,25.4,00.0,35.3,28.1,10.1,0000.0,0015.45,0006.02,0004.75
2021-11-20 12:32:00,,0826.1,4.99,0.00,26.3,25.4,00.0,35.3,28.1,10.1,0000.0,0015.46,0006.03,0004.77
2021-11-20 12:33:00,,0826.2,4.99,0.00,26.3,25.4,00.0,35.3,28.1,10.1,0000.0,0015.15,0006.06,0004.82
2021-11-20 12:34:00,,0826.2,5.00,0.00,26.3,25.4,00.0,35.3,28.1,10.1,0000.0,0015.16,0006.14,0004.86
2021-11-20 12:35:00,,0826.2,5.01,0.00,26.3,25.4,00.0,35.3,28.1,10.1,0000.0,0015.01,0006.18,0004.89
2021-11-20 12:36:00,,0826.2,5.00,0.00,26.3,25.3,00.0,35.3,28.1,10.1,0000.0,0015.33,0006.26,0004.93
2021-11-20 12:37:00,,0826.2,4.99,0.00,26.3,25.3,00.0,35.3,28.1,10.1,0000.0,0015.53,0006.33,0004.96
2021-11-20 12:38:00,,0826.1,5.00,0.00,26.3,25.3,00.0,35.3,28.1,10.2,0000.0,0015.50,0006.47,0005.00
2021-11-20 12:39:00,,0826.2,5.00,0.00,26.3,25.3,00.0,35.3,28.1,10.2,0002.7,0015.02,0006.54,0005.04
2021-11-20 12:40:00,,0826.2,5.00,0.00,26.3,25.4,00.0,35.3,28.1,10.2,0004.7,0014.48,0006.59,0005.07
2021-11-20 12:41:00,,0826.2,5.01,0.00,26.3,25.4,00.0,35.3,28.1,10.2,0004.3,0014.42,0006.65,0005.10
2021-11-20 12:42:00,,0826.2,5.00,0.00,26.3,25.4,00.0,35.3,28.1,10.3,0004.2,0014.73,0006.67,0005.10
2021-11-20 12:43:00,,0826.3,5.00,0.00,26.3,25.3,00.0,35.3,28.0,10.3,0004.4,0015.27,0006.74,0005.10
2021-11-20 12:44:00,,0826.4,5.01,0.00,26.3,25.3,00.0,35.3,28.1,10.3,0004.4,0015.04,0006.74,0005.08
2021-11-20 12:45:00,,0826.5,5.01,0.00,26.3,25.4,00.0,35.3,28.1,10.3,0004.2,0015.60,0006.76,0005.06
2021-11-20 12:46:00,,0826.5,5.01,0.00,26.3,25.4,00.0,35.3,28.1,10.3,0004.2,0017.05,0006.76,0005.04
2021-11-20 12:47:00,,0826.5,4.99,0.00,26.3,25.4,00.0,35.3,28.0,10.2,0004.1,0017.62,0006.77,0005.03
2021-11-20 12:48:00,,0826.5,5.00,0.00,26.3,25.4,00.0,35.3,28.1,10.2,0003.4,0017.48,0006.74,0005.03
2021-11-20 12:49:00,,0826.6,5.00,0.00,26.3,25.3,00.0,35.3,28.1,10.2,0000.5,0017.76,0006.66,0005.02
2021-11-20 12:50:00,,0826.6,4.99,0.00,26.3,25.3,00.0,35.3,28.1,10.2,0000.0,0017.33,0006.58,0005.02
2021-11-20 12:51:00,,0826.6,5.00,0.00,26.3,25.3,00.0,35.3,28.1,10.2,0000.0,0017.22,0006.54,0005.00
2021-11-20 12:52:00,,0826.6,5.01,0.00,26.3,25.3,00.0,35.3,28.0,10.2,0000.0,0017.07,0006.51,0004.97
2021-11-20 12:53:00,,0826.6,5.00,0.00,26.2,25.3,00.0,35.3,28.0,10.1,0000.0,0016.74,0006.52,0004.98
2021-11-20 12:54:00,,0826.7,5.00,0.00,26.2,25.3,00.0,35.2,28.0,10.1,0000.0,0016.25,0006.43,0004.98
2021-11-20 12:55:00,,0826.7,5.00,0.00,26.2,25.3,00.0,35.2,28.0,10.1,0000.0,0016.28,0006.40,0004.98
2021-11-20 12:56:00,,0826.7,4.99,0.00,26.2,25.3,00.0,35.2,28.0,10.1,0000.0,0015.73,0006.40,0004.99
2021-11-20 12:57:00,,0826.7,5.01,0.00,26.2,25.3,00.0,35.2,28.0,10.1,0000.0,0014.37,0006.39,0005.01
2021-11-20 12:58:00,,0826.7,5.00,0.00,26.2,25.3,00.0,35.2,28.0,10.1,0001.0,0014.17,0006.34,0005.02
2021-11-20 12:59:00,,0826.7,4.99,0.00,26.2,25.3,00.0,35.2,28.0,10.1,0003.7,0014.57,0006.31,0005.02
